Location: Berua Church
(35.0423°N, 88.5987°W)
Time: 14:06:16
(UTC+00:00)

Meteor 1-27 Rocket - Pass Details

Date: 08 December 2019
Orbit: 830 x 909 km, 81.3° (Epoch: 22 January)

Event Time Altitude Azimuth Distance (km) Brightness Sun altitude
Rises 23:09:57 0° 179° (S) 3,408 7.2 -5.9°
Reaches altitude 10° 23:12:21 10° 177° (S) 2,487 6.4 -6.3°
Maximum altitude 23:17:57 68° 95° (E) 936 3.8 -7.4°
Drops below altitude 10° 23:23:43 10° 14° (NNE) 2,555 5.9 -8.5°
Sets 23:26:12 0° 12° (NNE) 3,509 6.6 -9.0°
